Regional Weather Roundup
Issued by NWS

Home | Current Version | Previous Version | Text Only | Print | Product List | Glossary Off
Versions: 1 2 3 4 5 6 7 8 9 10 11 12 13 14 15 16 17 18 19 20 21 22 23 24 25 26 27 28 29 30 31 32 33 34 35 36 37 38 39 40 41 42 43 44 45 46 47 48 49 50

000
ASUS43 KMPX 212301
RWRMN
WEATHER ROUNDUP FOR MINNESOTA
NATIONAL WEATHER SERVICE TWIN CITIES/CHANHASSEN MN
500 PM CST TUE NOV 21 2017


NOTE: "FAIR" INDICATES FEW OR NO CLOUDS BELOW 12,000 FEET WITH NO
SIGNIFICANT WEATHER AND/OR OBSTRUCTIONS TO VISIBILITY. N/A MEANS
CURRENT SKY AND/OR WEATHER CONDITIONS ARE NOT AVAILABLE.

MNZ060>063-068>070-220000-
   Twin Cities Metro

CITY           SKY/WX    TMP DP  RH WIND       PRES   REMARKS
TWIN CITIES    CLEAR     26  10  50 NW14      30.21R WCI  14
ST PAUL        CLEAR     26   9  48 NW14      30.23R WCI  14
CRYSTAL        CLEAR     25   7  46 NW8       30.21R WCI  16
BLAINE         CLEAR     27  10  50 NW13G18   30.21R WCI  16
LAKEVILLE      CLEAR     23  10  58 W9        30.22R WCI  13
EDEN PRAIRIE   CLEAR     26   9  48 NW12      30.21R WCI  16
SOUTH ST PAUL  CLEAR     28   9  44 NW13      30.21R WCI  17
LAKE ELMO      FAIR      27  10  50 NW7       30.21R WCI  19
$$
MNZ001>005-007-008-013>017-022>024-027-028-220000-
   Northwest Minnesota

CITY           SKY/WX    TMP DP  RH WIND       PRES   REMARKS
BEMIDJI        FLURRIES  15   8  73 NW15      30.25R WCI   0
HALLOCK        CLEAR     18  10  73 W8        30.30S WCI   7
ROSEAU         CLEAR     19  10  68 W12       30.25R WCI   7
WARROAD        CLEAR     18  10  73 W8        30.24R WCI   7
CROOKSTON      CLEAR     19  10  68 NW12      30.33S WCI   7
FOSSTON        FLURRIES  16   9  73 NW12      30.30R WCI   3
DETROIT LAKES  PTCLDY    18  10  73 NW12      30.30R WCI   5
MOORHEAD       CLEAR     19   9  63 NW13      30.34S WCI   7
PARK RAPIDS    CLOUDY    16   8  71 NW14      30.25R WCI   2
MAHNOMEN       CLOUDY    17   9  72 NW12      30.30R WCI   4
$$
MNZ006-009>011-018-025>026-220000-
   North Central Minnesota

CITY           SKY/WX    TMP DP  RH WIND       PRES   REMARKS
BAUDETTE       MOCLDY    17   9  70 W9        30.20R WCI   6
FLAG ISLAND    MOCLDY    18   9  68 NW14      30.20R WCI   4
INTL FALLS     FLURRIES  17  10  74 W10       30.17R WCI   5
WASKISH        CLOUDY    18  10  73 W14       30.23R WCI   4
BIG FORK       FLURRIES  18   9  68 W5        30.19R WCI  11
LONGVILLE      FLURRIES  18   9  68 NW8G17    30.23R WCI   7
GRAND RAPIDS   FLURRIES  15   9  76 NW14      30.22R WCI   0
CRANE LAKE     FLURRIES  16   9  73 W7        30.17R WCI   6
ORR            CLOUDY    16   9  73 NW12      30.13R WCI   3
COOK           FLURRIES  16   9  73 W9        30.16R WCI   4
WALKER         CLOUDY    15   7  68 NW13G20   30.25R WCI   2
$$
MNZ012-019>021-037-220000-
   Northeast Minnesota

CITY           SKY/WX    TMP DP  RH WIND       PRES   REMARKS
DULUTH         FLURRIES  17   8  67 NW21G29   30.14R WCI   0
ELY            CLOUDY    16   7  67 W13G18    30.12R WCI   2
HIBBING        MIX PCPN  15   6  67 NW20      30.17R WCI  -2
EVELETH        MIX PCPN  17   8  65 W8        30.16R WCI   7
DULUTH HARBOR  MOCLDY    23  10  58 NW17G24   30.21R WCI   9
TWO HARBORS    PTCLDY    19  10  68 NW9       30.13R WCI   9
SILVER BAY     CLOUDY    18   9  68 NW8G16    30.11R WCI   7
GRAND MARAIS     N/A     22  10  60 VRB6      30.10R WCI  14
G MARAIS ARPRT CLOUDY    12   5  73 NW10G18   30.00R WCI  -1
$$
MNZ029>031-032-039>041-046>048-054>057-064-220000-
   West Central Minnesota

CITY           SKY/WX    TMP DP  RH WIND       PRES   REMARKS
FERGUS FALLS   CLEAR     19   9  63 NW12G18   30.35R WCI   7
WHEATON        CLEAR     21   9  58 NW10      30.37R WCI  10
MORRIS         CLEAR     21  10  63 NW15      30.32R WCI   8
ALEXANDRIA     CLEAR     19  10  68 NW14      30.28R WCI   6
ELBOW LAKE     FAIR      19  10  67 W15       30.32R WCI   5
WADENA         CLEAR     16   9  73 NW8       30.26S WCI   5
GLENWOOD       CLEAR     19  10  68 NW18G25   30.28R WCI   4
APPLETON       CLEAR     23   9  54 NW10      30.34R WCI  12
BENSON         CLEAR     21   9  58 N15       30.33R WCI   8
ORTONVILLE     CLEAR     21   9  58 MISG      30.34R
MADISON        CLEAR     25  10  54 NW13      30.35R WCI  13
WILLMAR        FAIR      23  12  63 NW14      30.31R WCI  11
$$
MNZ033>034-036-042>043-049>051-058-059-220000-
   Central Minnesota

CITY           SKY/WX    TMP DP  RH WIND       PRES   REMARKS
ST CLOUD       PTCLDY    22  10  60 NW21      30.24R WCI   6
SAUK CENTRE    FAIR      20  10  66 NW14      30.27R WCI   6
PAYNESVILLE    CLEAR     22  13  68 NW12      30.28R WCI  10
AITKIN         PTCLDY    16   7  67 NW10G16   30.21R WCI   3
PINE RIVER     PTCLDY    16   7  67 NW13G18   30.27R WCI   2
BRAINERD       PTCLDY    20   7  57 NW12      30.23R WCI   8
STAPLES        MOCLDY    16   9  73 NW13      30.26R WCI   2
LONG PRAIRIE   FAIR      19  10  68 W16G22    30.26R WCI   5
LITTLE FALLS   PTCLDY    21   3  45 NW13G21   30.26R WCI   9
LITCHFIELD     CLEAR     25  12  58 NW13G21   30.28R WCI  13
BUFFALO        CLEAR     24  11  56 W13       30.26R WCI  12
MAPLE LAKE     PTCLDY    24  13  62 W13       30.25R WCI  13
HUTCHINSON     CLEAR     24  12  61 W13G18    30.28R WCI  12
$$
MNZ037-044-045-052-053-220000-
   East Central Minnesota

CITY           SKY/WX    TMP DP  RH WIND       PRES   REMARKS
PRINCETON      PTCLDY    25  10  54 W10G17    30.22R WCI  15
MORA           PTCLDY    25  10  54 NW7       30.21R WCI  17
CAMBRIDGE      PTCLDY    27  12  54 W8        30.21R WCI  18
RUSH CITY      PTCLDY    25   9  50 NW6       30.20R WCI  18
MOOSE LAKE     CLOUDY    21  10  63 NW8       30.18R WCI  12
HINCKLEY       FAIR      25  10  54 NW6       30.19R WCI  18
CLOQUET        CLOUDY    18   9  68 NW12G17   30.17R WCI   5
MCGREGOR       CLOUDY    19  10  68 NW10G21   30.21R WCI   8
$$
MNZ071>073-080-081-089-090-097-098-220000-
   Southwest Minnesota

CITY           SKY/WX    TMP DP  RH WIND       PRES   REMARKS
MONTEVIDEO     CLEAR     21   7  53 N12       30.33R WCI   9
GRANITE FALLS  CLEAR     25  11  57 NW13      30.34R WCI  13
CANBY          CLEAR     25   9  51 W10       30.35R WCI  14
MARSHALL       CLEAR     23   9  55 N14       30.32R WCI  11
REDWOOD FALLS  CLEAR     24   7  48 NW15G25   30.31R WCI  11
OLIVIA         CLEAR     23  10  58 NW14G22   30.30R WCI  11
PIPESTONE      CLEAR     23   7  50 NW9       30.30R WCI  13
WINDOM           N/A     23   7  50 NW16      30.29R WCI  10
WORTHINGTON    CLEAR     23   9  55 NW14      30.29R WCI  11
JACKSON        CLEAR     25   9  50 NW21      30.28R WCI  10
SLAYTON        CLEAR     25   8  48 NW15G23   30.30R WCI  12
$$
MNZ065>067-074>077-082>085-091>093-220000-
   South Central Minnesota

CITY           SKY/WX    TMP DP  RH WIND       PRES   REMARKS
MANKATO        CLEAR     24  11  57 NW13G23   30.26R WCI  12
NEW ULM        CLEAR     25   9  50 NW13G24   30.29R WCI  13
ST JAMES       CLEAR     25  10  54 NW17G23   30.29R WCI  11
FAIRMONT       CLEAR     24  11  57 NW17      30.28R WCI  11
GLENCOE        CLEAR     25  12  57 W12       30.25R WCI  15
FARIBAULT      CLEAR     25  10  54 W12       30.23R WCI  14
OWATONNA       CLEAR     25  12  58 NW14      30.22R WCI  13
WASECA         CLEAR     25  12  58 NW12      30.24R WCI  14
ALBERT LEA     CLEAR     25   9  50 NW9G18    30.22R WCI  15
$$
MNZ078>079-086>088-094>096-220000-
   Southeast Minnesota

CITY           SKY/WX    TMP DP  RH WIND       PRES   REMARKS
ROCHESTER      CLEAR     23  12  62 NW17      30.18R WCI   9
RED WING       CLEAR     27   7  43 NW8       30.19R WCI  18
STANTON        CLEAR     26  12  56 NW10      30.21R WCI  16
DODGE CENTER   CLEAR     23  10  58 NW13G21   30.19R WCI  11
WINONA         CLEAR     30  16  55 NW7       30.19R WCI  23
PRESTON        CLEAR     24  11  59 NW12      30.17R WCI  13
$$
ABBREVIATIONS USED IN REMARKS
   TC - TEMPERATURES IN CELSIUS
  WCI - WIND CHILL INDEX
   HX - HEAT INDEX
  VSB - VISIBILITY
$$



USA.gov is the U.S. government's official web portal to all federal, state and local government web resources and services.